Time,TemperatureF,DewpointF,PressureIn,WindDirection,WindDirectionDegrees,WindSpeedMPH,WindSpeedGustMPH,Humidity,HourlyPrecipIn,Conditions,Clouds,dailyrainin,SoftwareType,DateUTC
2013-01-26 00:02:00,-5.0,-9.0,-100.00,North,355,6.0,7.0,77,0.00,,,0.00,,2013-01-26 06:02:00,
2013-01-26 00:12:00,-5.0,-9.0,-100.00,North,0,6.0,7.0,77,0.00,,,0.00,,2013-01-26 06:12:00,
2013-01-26 00:21:00,-5.0,-9.0,-100.00,North,10,6.0,7.0,77,0.00,,,0.00,,2013-01-26 06:21:00,
2013-01-26 00:31:00,-5.0,-11.0,-100.00,NNE,15,5.0,7.0,77,0.00,,,0.00,,2013-01-26 06:31:00,
2013-01-26 00:41:00,-6.0,-11.0,-100.00,NNE,20,8.0,9.0,77,0.00,,,0.00,,2013-01-26 06:41:00,
2013-01-26 00:51:00,-6.0,-11.0,-100.00,NNE,25,10.0,11.0,78,0.00,,,0.00,,2013-01-26 06:51:00,
2013-01-26 01:02:00,-6.0,-11.0,-100.00,NE,35,7.0,10.0,78,0.00,,,0.00,,2013-01-26 07:02:00,
2013-01-26 01:12:00,-6.0,-11.0,-100.00,NE,35,7.0,8.0,78,0.00,,,0.00,,2013-01-26 07:12:00,
2013-01-26 01:21:00,-6.0,-11.0,-100.00,NE,45,6.0,7.0,78,0.00,,,0.00,,2013-01-26 07:21:00,
2013-01-26 01:33:00,-7.0,-11.0,-100.00,NE,45,8.0,9.0,78,0.00,,,0.00,,2013-01-26 07:33:00,
2013-01-26 01:41:00,-5.0,-11.0,-100.00,NE,55,6.0,9.0,78,0.00,,,0.00,,2013-01-26 07:41:00,
2013-01-26 01:51:00,-6.0,-11.0,-100.00,ENE,65,7.0,9.0,78,0.00,,,0.00,,2013-01-26 07:51:00,
2013-01-26 02:02:00,-5.0,-9.0,-100.00,ENE,70,10.0,11.0,78,0.00,,,0.00,,2013-01-26 08:02:00,
2013-01-26 02:11:00,-4.0,-9.0,-100.00,ENE,75,10.0,11.0,77,0.00,,,0.00,,2013-01-26 08:11:00,
2013-01-26 02:21:00,-3.0,-9.0,-100.00,ENE,70,11.0,12.0,76,0.00,,,0.00,,2013-01-26 08:21:00,
2013-01-26 02:31:00,-4.0,-9.0,-100.00,ENE,75,11.0,12.0,76,0.00,,,0.00,,2013-01-26 08:31:00,
2013-01-26 02:42:00,-4.0,-9.0,-100.00,East,80,9.0,12.0,76,0.00,,,0.00,,2013-01-26 08:42:00,
2013-01-26 02:53:00,-4.0,-9.0,-100.00,South,190,3.0,9.0,76,0.00,,,0.00,,2013-01-26 08:53:00,
2013-01-26 03:02:00,-4.0,-9.0,-100.00,SE,135,4.0,7.0,75,0.00,,,0.00,,2013-01-26 09:02:00,
2013-01-26 03:11:00,-4.0,-9.0,-100.00,SE,125,4.0,6.0,75,0.00,,,0.00,,2013-01-26 09:11:00,
2013-01-26 03:22:00,-4.0,-9.0,-100.00,SE,145,4.0,6.0,75,0.00,,,0.00,,2013-01-26 09:22:00,
2013-01-26 03:32:00,-5.0,-11.0,-100.00,SSE,160,4.0,6.0,75,0.00,,,0.00,,2013-01-26 09:32:00,
2013-01-26 03:42:00,-5.0,-11.0,-100.00,SSE,150,3.0,6.0,76,0.00,,,0.00,,2013-01-26 09:42:00,
2013-01-26 03:51:00,-5.0,-11.0,-100.00,SSE,160,1.0,4.0,76,0.00,,,0.00,,2013-01-26 09:51:00,
2013-01-26 04:01:00,-5.0,-11.0,-100.00,SSW,195,2.0,3.0,76,0.00,,,0.00,,2013-01-26 10:01:00,
2013-01-26 04:11:00,-5.0,-11.0,-100.00,South,180,4.0,4.0,77,0.00,,,0.00,,2013-01-26 10:11:00,
2013-01-26 04:21:00,-6.0,-11.0,-100.00,ESE,120,4.0,4.0,77,0.00,,,0.00,,2013-01-26 10:21:00,
2013-01-26 04:31:00,-5.0,-9.0,-100.00,SE,125,6.0,7.0,77,0.00,,,0.00,,2013-01-26 10:31:00,
2013-01-26 04:42:00,-3.0,-8.0,-100.00,SE,130,7.0,9.0,76,0.00,,,0.00,,2013-01-26 10:42:00,
2013-01-26 04:52:00,-3.0,-9.0,-100.00,SSE,160,5.0,8.0,75,0.00,,,0.00,,2013-01-26 10:52:00,
2013-01-26 05:01:00,-3.0,-9.0,-100.00,SE,125,10.0,12.0,75,0.00,,,0.00,,2013-01-26 11:01:00,
2013-01-26 05:12:00,-2.0,-8.0,-100.00,ESE,105,10.0,14.0,74,0.00,,,0.00,,2013-01-26 11:12:00,
2013-01-26 05:22:00,-2.0,-9.0,-100.00,ESE,105,12.0,17.0,74,0.00,,,0.00,,2013-01-26 11:22:00,
2013-01-26 05:32:00,-2.0,-9.0,-100.00,East,100,11.0,17.0,74,0.00,,,0.00,,2013-01-26 11:32:00,
2013-01-26 05:42:00,-3.0,-9.0,-100.00,SE,125,7.0,12.0,74,0.00,,,0.00,,2013-01-26 11:42:00,
2013-01-26 05:52:00,-3.0,-9.0,-100.00,ESE,120,9.0,13.0,74,0.00,,,0.00,,2013-01-26 11:52:00,
2013-01-26 06:02:00,-2.0,-9.0,-100.00,SE,130,10.0,13.0,74,0.00,,,0.00,,2013-01-26 12:02:00,
2013-01-26 06:12:00,-2.0,-9.0,-100.00,SE,130,9.0,13.0,74,0.00,,,0.00,,2013-01-26 12:12:00,
2013-01-26 06:22:00,-2.0,-9.0,-100.00,SE,130,9.0,12.0,74,0.00,,,0.00,,2013-01-26 12:22:00,
2013-01-26 06:33:00,-2.0,-9.0,-100.00,SE,130,9.0,12.0,74,0.00,,,0.00,,2013-01-26 12:33:00,
2013-01-26 06:42:00,-2.0,-8.0,-100.00,SE,125,9.0,13.0,74,0.00,,,0.00,,2013-01-26 12:42:00,
2013-01-26 06:52:00,-2.0,-8.0,-100.00,SE,125,9.0,12.0,74,0.00,,,0.00,,2013-01-26 12:52:00,
2013-01-26 07:03:00,-2.0,-9.0,-100.00,SE,130,7.0,12.0,74,0.00,,,0.00,,2013-01-26 13:03:00,
2013-01-26 07:12:00,-2.0,-9.0,-100.00,ESE,120,10.0,13.0,74,0.00,,,0.00,,2013-01-26 13:12:00,
2013-01-26 07:22:00,-2.0,-9.0,-100.00,ESE,120,11.0,14.0,74,0.00,,,0.00,,2013-01-26 13:22:00,
2013-01-26 07:32:00,-2.0,-8.0,-100.00,SE,125,9.0,14.0,74,0.00,,,0.00,,2013-01-26 13:32:00,
2013-01-26 07:42:00,-2.0,-8.0,-100.00,SE,135,9.0,12.0,74,0.00,,,0.00,,2013-01-26 13:42:00,
2013-01-26 07:52:00,-1.0,-8.0,-100.00,SE,140,12.0,15.0,74,0.00,,,0.00,,2013-01-26 13:52:00,
2013-01-26 08:03:00,-1.0,-8.0,-100.00,SE,145,11.0,16.0,74,0.00,,,0.00,,2013-01-26 14:03:00,
2013-01-26 08:11:00,-1.0,-8.0,-100.00,SE,135,12.0,17.0,74,0.00,,,0.00,,2013-01-26 14:11:00,
2013-01-26 08:21:00,-1.0,-8.0,-100.00,SE,140,13.0,18.0,74,0.00,,,0.00,,2013-01-26 14:21:00,
2013-01-26 08:32:00,-1.0,-8.0,-100.00,SE,145,11.0,20.0,74,0.00,,,0.00,,2013-01-26 14:32:00,
2013-01-26 08:43:00,0.0,-6.0,-100.00,SE,145,9.0,17.0,74,0.00,,,0.00,,2013-01-26 14:43:00,
2013-01-26 08:52:00,0.0,-6.0,-100.00,SE,135,10.0,17.0,74,0.00,,,0.00,,2013-01-26 14:52:00,
2013-01-26 09:03:00,0.0,-6.0,-100.00,SE,140,13.0,18.0,74,0.00,,,0.00,,2013-01-26 15:03:00,
2013-01-26 09:12:00,1.0,-6.0,-100.00,SE,145,11.0,18.0,73,0.00,,,0.00,,2013-01-26 15:12:00,
2013-01-26 09:22:00,2.0,-6.0,-100.00,SE,145,12.0,17.0,73,0.00,,,0.00,,2013-01-26 15:22:00,
2013-01-26 09:32:00,2.0,-4.0,-100.00,SE,135,12.0,20.0,73,0.00,,,0.00,,2013-01-26 15:32:00,
2013-01-26 09:43:00,2.0,-4.0,-100.00,SE,140,16.0,21.0,73,0.00,,,0.00,,2013-01-26 15:43:00,
2013-01-26 09:52:00,3.0,-4.0,-100.00,SSE,150,16.0,21.0,73,0.00,,,0.00,,2013-01-26 15:52:00,
2013-01-26 10:02:00,3.0,-4.0,-100.00,SE,145,14.0,22.0,73,0.00,,,0.00,,2013-01-26 16:02:00,
2013-01-26 10:12:00,4.0,-2.0,-100.00,SE,140,16.0,23.0,72,0.00,,,0.00,,2013-01-26 16:12:00,
2013-01-26 10:22:00,5.0,-2.0,-100.00,SSE,150,16.0,24.0,72,0.00,,,0.00,,2013-01-26 16:22:00,
2013-01-26 10:32:00,5.0,-2.0,-100.00,SE,145,17.0,24.0,71,0.00,,,0.00,,2013-01-26 16:32:00,
2013-01-26 10:42:00,6.0,-2.0,-100.00,SE,145,12.0,20.0,71,0.00,,,0.00,,2013-01-26 16:42:00,
2013-01-26 10:53:00,6.0,0.0,-100.00,SE,145,19.0,22.0,70,0.00,,,0.00,,2013-01-26 16:53:00,
2013-01-26 11:03:00,7.0,0.0,-100.00,SE,145,12.0,22.0,70,0.00,,,0.00,,2013-01-26 17:03:00,
2013-01-26 11:12:00,7.0,0.0,-100.00,SSE,155,18.0,23.0,69,0.00,,,0.00,,2013-01-26 17:12:00,
2013-01-26 11:22:00,8.0,0.0,-100.00,SSE,150,19.0,22.0,69,0.00,,,0.00,,2013-01-26 17:22:00,
2013-01-26 11:32:00,8.0,0.0,-100.00,SE,145,14.0,24.0,69,0.00,,,0.00,,2013-01-26 17:32:00,
2013-01-26 11:42:00,8.0,0.0,-100.00,SSE,150,17.0,21.0,69,0.00,,,0.00,,2013-01-26 17:42:00,
2013-01-26 11:52:00,9.0,1.0,-100.00,SE,145,18.0,24.0,69,0.00,,,0.00,,2013-01-26 17:52:00,
2013-01-26 12:02:00,9.0,1.0,-100.00,SSE,155,19.0,26.0,69,0.00,,,0.00,,2013-01-26 18:02:00,
2013-01-26 12:12:00,10.0,1.0,-100.00,SSE,150,18.0,23.0,69,0.00,,,0.00,,2013-01-26 18:12:00,
2013-01-26 12:22:00,10.0,1.0,-100.00,SE,130,14.0,22.0,68,0.00,,,0.00,,2013-01-26 18:22:00,
2013-01-26 12:33:00,11.0,1.0,-100.00,SSE,150,12.0,19.0,67,0.00,,,0.00,,2013-01-26 18:33:00,
2013-01-26 12:42:00,11.0,3.0,-100.00,ESE,120,12.0,17.0,67,0.00,,,0.00,,2013-01-26 18:42:00,
2013-01-26 12:52:00,11.0,1.0,-100.00,SE,130,15.0,23.0,66,0.00,,,0.00,,2013-01-26 18:52:00,
2013-01-26 13:03:00,12.0,3.0,-100.00,SE,130,15.0,23.0,65,0.00,,,0.00,,2013-01-26 19:03:00,
2013-01-26 13:12:00,12.0,3.0,-100.00,SE,125,18.0,22.0,65,0.00,,,0.00,,2013-01-26 19:12:00,
2013-01-26 13:22:00,13.0,3.0,-100.00,ESE,120,13.0,19.0,63,0.00,,,0.00,,2013-01-26 19:22:00,
2013-01-26 13:32:00,13.0,3.0,-100.00,SE,125,14.0,19.0,62,0.00,,,0.00,,2013-01-26 19:32:00,
2013-01-26 13:42:00,14.0,3.0,-100.00,SE,130,15.0,24.0,62,0.00,,,0.00,,2013-01-26 19:42:00,
2013-01-26 13:52:00,14.0,3.0,-100.00,SE,125,14.0,21.0,62,0.00,,,0.00,,2013-01-26 19:52:00,
2013-01-26 14:02:00,15.0,3.0,-100.00,ESE,115,15.0,21.0,61,0.00,,,0.00,,2013-01-26 20:02:00,
2013-01-26 14:11:00,15.0,3.0,-100.00,ESE,115,11.0,21.0,61,0.00,,,0.00,,2013-01-26 20:11:00,
2013-01-26 14:21:00,14.0,3.0,-100.00,ESE,120,17.0,22.0,62,0.00,,,0.00,,2013-01-26 20:21:00,
2013-01-26 14:32:00,15.0,5.0,-100.00,ESE,110,12.0,25.0,62,0.00,,,0.00,,2013-01-26 20:32:00,
2013-01-26 14:42:00,15.0,5.0,-100.00,ESE,120,14.0,21.0,62,0.00,,,0.00,,2013-01-26 20:42:00,
2013-01-26 14:52:00,15.0,5.0,-100.00,SE,125,14.0,19.0,61,0.00,,,0.00,,2013-01-26 20:52:00,
2013-01-26 15:02:00,15.0,5.0,-100.00,SE,140,16.0,21.0,62,0.00,,,0.00,,2013-01-26 21:02:00,
2013-01-26 15:12:00,15.0,5.0,-100.00,SE,135,17.0,24.0,62,0.00,,,0.00,,2013-01-26 21:12:00,
2013-01-26 15:22:00,15.0,5.0,-100.00,SE,125,19.0,22.0,64,0.00,,,0.00,,2013-01-26 21:22:00,
2013-01-26 15:32:00,16.0,7.0,-100.00,SE,140,11.0,24.0,64,0.00,,,0.00,,2013-01-26 21:32:00,
2013-01-26 15:42:00,16.0,7.0,-100.00,SE,135,16.0,21.0,64,0.00,,,0.00,,2013-01-26 21:42:00,
2013-01-26 15:51:00,16.0,7.0,-100.00,SE,145,16.0,23.0,64,0.00,,,0.00,,2013-01-26 21:51:00,
2013-01-26 16:01:00,16.0,7.0,-100.00,SE,135,12.0,21.0,64,0.00,,,0.00,,2013-01-26 22:01:00,
2013-01-26 16:11:00,16.0,7.0,-100.00,ESE,120,12.0,21.0,64,0.00,,,0.00,,2013-01-26 22:11:00,
2013-01-26 16:21:00,16.0,7.0,-100.00,ESE,120,13.0,18.0,65,0.00,,,0.00,,2013-01-26 22:21:00,
2013-01-26 16:32:00,16.0,7.0,-100.00,ESE,120,14.0,19.0,66,0.00,,,0.00,,2013-01-26 22:32:00,
2013-01-26 16:42:00,16.0,7.0,-100.00,ESE,115,14.0,22.0,66,0.00,,,0.00,,2013-01-26 22:42:00,
2013-01-26 16:51:00,16.0,7.0,-100.00,SE,130,15.0,18.0,66,0.00,,,0.00,,2013-01-26 22:51:00,
2013-01-26 17:01:00,16.0,7.0,-100.00,ESE,120,16.0,21.0,66,0.00,,,0.00,,2013-01-26 23:01:00,
2013-01-26 17:11:00,16.0,7.0,-100.00,ESE,120,16.0,20.0,66,0.00,,,0.00,,2013-01-26 23:11:00,
2013-01-26 17:22:00,17.0,7.0,-100.00,SE,125,17.0,26.0,67,0.00,,,0.00,,2013-01-26 23:22:00,
2013-01-26 17:32:00,17.0,9.0,-100.00,ESE,120,15.0,23.0,67,0.00,,,0.00,,2013-01-26 23:32:00,
2013-01-26 17:41:00,17.0,9.0,-100.00,ESE,120,17.0,23.0,66,0.00,,,0.00,,2013-01-26 23:41:00,
2013-01-26 17:52:00,18.0,9.0,-100.00,ESE,115,15.0,22.0,66,0.00,,,0.00,,2013-01-26 23:52:00,
2013-01-26 18:02:00,18.0,9.0,-100.00,ESE,120,16.0,24.0,66,0.00,,,0.00,,2013-01-27 00:02:00,
2013-01-26 18:11:00,18.0,9.0,-100.00,ESE,115,14.0,19.0,66,0.00,,,0.00,,2013-01-27 00:11:00,
2013-01-26 18:21:00,18.0,9.0,-100.00,ESE,115,16.0,22.0,66,0.00,,,0.00,,2013-01-27 00:21:00,
2013-01-26 18:32:00,18.0,9.0,-100.00,ESE,115,16.0,22.0,66,0.00,,,0.00,,2013-01-27 00:32:00,
2013-01-26 18:41:00,18.0,9.0,-100.00,SE,130,20.0,25.0,66,0.00,,,0.00,,2013-01-27 00:41:00,
2013-01-26 18:51:00,18.0,9.0,-100.00,SE,125,19.0,24.0,66,0.00,,,0.00,,2013-01-27 00:51:00,
2013-01-26 19:01:00,19.0,9.0,-100.00,SE,125,19.0,23.0,66,0.00,,,0.00,,2013-01-27 01:01:00,
2013-01-26 19:11:00,19.0,9.0,-100.00,SE,135,17.0,23.0,66,0.00,,,0.00,,2013-01-27 01:11:00,
2013-01-26 19:22:00,19.0,9.0,-100.00,SE,125,19.0,24.0,63,0.00,,,0.00,,2013-01-27 01:22:00,
2013-01-26 19:32:00,19.0,9.0,-100.00,SE,130,20.0,27.0,62,0.00,,,0.00,,2013-01-27 01:32:00,
2013-01-26 19:41:00,19.0,9.0,-100.00,SE,125,18.0,26.0,62,0.00,,,0.00,,2013-01-27 01:41:00,
2013-01-26 19:51:00,20.0,9.0,-100.00,SE,125,17.0,23.0,61,0.00,,,0.00,,2013-01-27 01:51:00,
2013-01-26 20:01:00,19.0,9.0,-100.00,SE,125,17.0,21.0,61,0.00,,,0.00,,2013-01-27 02:01:00,
2013-01-26 20:11:00,20.0,9.0,-100.00,SE,130,18.0,24.0,60,0.00,,,0.00,,2013-01-27 02:11:00,
2013-01-26 20:21:00,20.0,9.0,-100.00,SE,135,17.0,24.0,59,0.00,,,0.00,,2013-01-27 02:21:00,
2013-01-26 20:31:00,20.0,9.0,-100.00,SE,140,16.0,24.0,59,0.00,,,0.00,,2013-01-27 02:31:00,
2013-01-26 20:41:00,20.0,9.0,-100.00,SE,135,19.0,29.0,58,0.00,,,0.00,,2013-01-27 02:41:00,
2013-01-26 20:52:00,20.0,9.0,-100.00,SE,140,19.0,27.0,58,0.00,,,0.00,,2013-01-27 02:52:00,
2013-01-26 21:02:00,20.0,9.0,-100.00,SE,130,20.0,27.0,58,0.00,,,0.00,,2013-01-27 03:02:00,
2013-01-26 21:11:00,21.0,9.0,-100.00,SE,130,20.0,28.0,57,0.00,,,0.00,,2013-01-27 03:11:00,
2013-01-26 21:21:00,20.0,9.0,-100.00,SE,130,20.0,27.0,57,0.00,,,0.00,,2013-01-27 03:21:00,
2013-01-26 21:31:00,21.0,9.0,-100.00,SE,130,20.0,28.0,57,0.00,,,0.00,,2013-01-27 03:31:00,
2013-01-26 21:42:00,21.0,9.0,-100.00,SE,125,20.0,26.0,57,0.00,,,0.00,,2013-01-27 03:42:00,
2013-01-26 21:51:00,21.0,9.0,-100.00,SE,125,21.0,27.0,57,0.00,,,0.00,,2013-01-27 03:51:00,
2013-01-26 22:01:00,21.0,9.0,-100.00,SE,125,20.0,24.0,57,0.00,,,0.00,,2013-01-27 04:01:00,
2013-01-26 22:11:00,21.0,9.0,-100.00,SE,130,18.0,26.0,57,0.00,,,0.00,,2013-01-27 04:11:00,
2013-01-26 22:21:00,21.0,9.0,-100.00,ESE,120,18.0,25.0,57,0.00,,,0.00,,2013-01-27 04:21:00,
2013-01-26 22:32:00,21.0,9.0,-100.00,ESE,120,20.0,25.0,57,0.00,,,0.00,,2013-01-27 04:32:00,
2013-01-26 22:41:00,21.0,9.0,-100.00,ESE,115,17.0,24.0,57,0.00,,,0.00,,2013-01-27 04:41:00,
2013-01-26 22:51:00,21.0,9.0,-100.00,SE,125,17.0,26.0,57,0.00,,,0.00,,2013-01-27 04:51:00,
2013-01-26 23:03:00,21.0,9.0,-100.00,ESE,115,17.0,24.0,57,0.00,,,0.00,,2013-01-27 05:03:00,
2013-01-26 23:12:00,21.0,9.0,-100.00,ESE,110,18.0,25.0,57,0.00,,,0.00,,2013-01-27 05:12:00,
2013-01-26 23:22:00,22.0,9.0,-100.00,ESE,110,17.0,23.0,56,0.00,,,0.00,,2013-01-27 05:22:00,
2013-01-26 23:32:00,22.0,9.0,-100.00,ESE,120,17.0,24.0,56,0.00,,,0.00,,2013-01-27 05:32:00,
2013-01-26 23:41:00,22.0,9.0,-100.00,ESE,120,15.0,25.0,56,0.00,,,0.00,,2013-01-27 05:41:00,
2013-01-26 23:52:00,22.0,9.0,-100.00,ESE,120,17.0,22.0,57,0.00,,,0.00,,2013-01-27 05:52:00,